Regional Weather Roundup
Issued by NWS

Home | Current Version | Previous Version | Graphics & Text | Print | Product List | Glossary On
Versions: 1 2 3 4 5 6 7 8 9 10 11 12 13 14 15 16 17 18 19 20 21 22 23 24 25 26 27 28 29 30 31 32 33 34 35 36 37 38 39 40 41 42 43 44 45 46 47 48 49 50
000
ASUS43 KOAX 260810
RWRNE

WEATHER ROUNDUP FOR NEBRASKA
NATIONAL WEATHER SERVICE OMAHA NE
300 AM CDT FRI AUG 26 2016

NOTES: SATELLITE DATA IS BEING USED TO AUGMENT CLOUD COVER ABOVE
       12000 FEET.
       "FAIR" INDICATES FEW OR NO CLOUDS BELOW 12,000 FEET WITH NO
       SIGNIFICANT WEATHER AND/OR OBSTRUCTIONS TO VISIBILITY.

  * THESE STATIONS DO NOT REPORT WEATHER SUCH AS RAIN...SNOW OR FOG.

NEZ001>004-019>022-054>056-260900-
NEBRASKA PANHANDLE

CITY           SKY/WX    TMP DP  RH WIND       PRES   REMARKS
SCOTTSBLUFF    FAIR      56  48  74 E9        30.17F
ALLIANCE       FAIR      51  46  83 SE7       30.18F
CHADRON        FAIR      55  48  77 E6        30.18F
KIMBALL        FAIR      54  47  76 S8        30.19F
SIDNEY         FAIR      51  46  83 SE8       30.20F
$$

NEZ057>060-069>072-079>082-260900-
SOUTHWEST NEBRASKA

CITY           SKY/WX    TMP DP  RH WIND       PRES   REMARKS
NORTH PLATTE   FAIR      54  51  90 E3        30.19S
IMPERIAL       FAIR      55  51  86 SE8       30.18F
LEXINGTON      FAIR      55  53  92 CALM      30.18F
MCCOOK         FAIR      59  53  80 CALM      30.17F
OGALLALA       FAIR      58  51  77 SE3       30.18F
$$

NEZ005>010-023>029-035>040-094-260900-
NORTH CENTRAL NEBRASKA

CITY           SKY/WX    TMP DP  RH WIND       PRES   REMARKS
VALENTINE      FAIR      48  44  86 CALM      30.20F
AINSWORTH      FAIR      53  50  90 CALM      30.20S
BROKEN BOW     FAIR      50  49  96 CALM      30.18F
O`NEILL        FAIR      53  50  90 CALM      30.20R
ORD            FAIR      53  50  89 CALM      30.17
THEDFORD       MOCLDY    52  48  87 CALM      30.21S
$$

NEZ041-046>049-061>064-073>077-083>087-260900-
SOUTH CENTRAL NEBRASKA

CITY           SKY/WX    TMP DP  RH WIND       PRES   REMARKS
GRAND ISLAND   FAIR      55  53  93 CALM      30.17F
AURORA         FAIR      55  55  98 NE5       30.16F
HASTINGS       FAIR      57  54  89 CALM      30.17F
HEBRON         FAIR      60  58  93 CALM      30.14F
HOLDREGE       FAIR      56  54  93 E6        30.16F
KEARNEY *      FAIR      57  54  88 CALM      30.16F
YORK           FAIR      55  54  94 CALM      30.16F
$$

NEZ011>018-030>034-042>045-260900-
NORTHEAST NEBRASKA

CITY           SKY/WX    TMP DP  RH WIND       PRES   REMARKS
NORFOLK        FAIR      54  52  93 CALM      30.17F
ALBION         FAIR      54  52  92 CALM      30.18F
BLAIR          FAIR      61  58  89 N6        30.15S
FREMONT        FAIR      57  56  97 CALM      30.16F
TEKAMAH        FAIR      56  54  93 N6        30.15
WAYNE          FAIR      53  53  97 CALM      30.17F
$$

NEZ050>053-065>068-078-088>093-260900-
SOUTHEAST NEBRASKA

CITY           SKY/WX    TMP DP  RH WIND       PRES   REMARKS
LINCOLN        FAIR      58  56  93 N5        30.15
OMAHA EPPLEY   FAIR      61  57  87 N8        30.14F
BEATRICE       FAIR      60  59  97 N5        30.14R
FALLS CITY     FAIR      64  62  93 CALM      30.12
NEBRASKA CITY  FAIR      62  62 100 CALM      30.14S
PLATTSMOUTH    FAIR      62  59  92 N3        30.14F
$$

NEZ044-045-051>053-067-260900-
OMAHA AREA

CITY           SKY/WX    TMP DP  RH WIND       PRES   REMARKS
OMAHA EPPLEY   FAIR      61  57  87 N8        30.14F
BLAIR          FAIR      61  58  89 N6        30.15S
FREMONT        FAIR      57  56  97 CALM      30.16F
MILLARD        FAIR      61  59  92 CALM      30.14F
OFFUTT AFB     FAIR      58  58 100 N2        30.13F
PLATTSMOUTH    FAIR      62  59  92 N3        30.14F
WAHOO          FAIR      58  57  94 N6        30.15F
$$




USA.gov is the U.S. government's official web portal to all federal, state and local government web resources and services.